STARLINK-36958

Last updated on Sun Apr 12 2026 00:02:06 GMT+0000 (Coordinated Universal Time)

1 68163U 26049X 26101.53764147 .00299616 00000+0 19298-2 0 9995 2 68163 97.2851 122.4748 0001365 63.4619 296.6786 15.75311289 4594
UTC large
Height (km)
Speed (km/s)
/
Latitude / Longitude
Inclination (degrees)
Orbital Period (minutes)
Azimuth
Elevation
Range (km)
Doppler Factor

Next 0 passes for location: London (51.5072 / 0.1276)

Sorry there are no passes over London.
STARLINK-36958